Location: Poughquag
(41.6090°N, 73.6820°W)
Time: 14:49:50
(UTC-04:00)

Explorer 11/Cluster Stage 4 - Pass Details

Date: 31 May 2020
Orbit: 467 x 1259 km, 28.8° (Epoch: 05 July)

Event Time Altitude Azimuth Distance (km) Brightness Sun altitude
Rises 12:20:47 0° 257° (WSW) 4,154 10.3 69.3°
Reaches altitude 10° 12:25:44 10° 232° (SW) 3,227 10.0 69.6°
Maximum altitude 12:28:59 13° 208° (SSW) 3,007 10.0 69.8°
Drops below altitude 10° 12:32:13 10° 185° (S) 3,192 10.1 70.0°
Sets 12:37:05 0° 159° (SSE) 4,066 10.5 70.2°
